This is the latest recevied weather packets stored in our database for station/object K5OLV. If no packets are shown the sender has not sent any weather packets the latest 10 day(s).
| Time | Temp. | Humidity | Pressure | Rain* | Wind** | Luminosity | Snow |
|---|---|---|---|---|---|---|---|
| 1777586001 | 16.11° C | 56% | 1010.3 hPa | 0 mm | - | 270 W/m² | - |
| 1777585696 | 15.56° C | 54% | 1010.2 hPa | 0 mm | - | 256 W/m² | - |
| 1777585396 | 15.56° C | 57% | 1010.3 hPa | 0 mm | - | 237 W/m² | - |
| 1777585091 | 15.56° C | 57% | 1010.1 hPa | 0 mm | - | 209 W/m² | - |
| 1777584787 | 16.11° C | 56% | 1010.5 hPa | 0 mm | - | 255 W/m² | - |
| 1777584486 | 16.11° C | 56% | 1010.4 hPa | 0 mm | - | 271 W/m² | - |
| 1777584182 | 16.11° C | 55% | 1010.2 hPa | 0 mm | - | 251 W/m² | - |
| 1777583881 | 16.11° C | 56% | 1010.4 hPa | 0 mm | - | 247 W/m² | - |
| 1777583577 | 16.11° C | 57% | 1010.5 hPa | 0 mm | - | 242 W/m² | - |
| 1777583275 | 16.11° C | 56% | 1010.6 hPa | 0 mm | - | 261 W/m² | - |
| 1777582970 | 16.67° C | 55% | 1010.8 hPa | 0 mm | - | 293 W/m² | - |
| 1777582669 | 16.67° C | 59% | 1010.7 hPa | 0 mm | - | 374 W/m² | - |
| 1777582363 | 16.67° C | 56% | 1010.6 hPa | 0 mm | - | 284 W/m² | - |
| 1777582062 | 16.67° C | 57% | 1010.8 hPa | 0 mm | - | 481 W/m² | - |
| 1777581756 | 16.67° C | 54% | 1010.4 hPa | 0 mm | - | 331 W/m² | - |
| 1777581455 | 16.67° C | 57% | 1010.5 hPa | 0 mm | - | 540 W/m² | - |
| 1777581151 | 16.67° C | 57% | 1010.8 hPa | 0 mm | - | 429 W/m² | - |
| 1777580845 | 16.67° C | 57% | 1010.7 hPa | 0 mm | - | 325 W/m² | - |
| 1777580541 | 16.67° C | 57% | 1010.7 hPa | 0 mm | - | 377 W/m² | - |
| 1777580236 | 16.67° C | 54% | 1010.8 hPa | 0 mm | - | 351 W/m² | - |
| 1777579934 | 17.22° C | 59% | 1010.7 hPa | 0 mm | - | 454 W/m² | - |
| 1777579629 | 17.22° C | 55% | 1010.9 hPa | 0 mm | - | 406 W/m² | - |
| 1777579327 | 16.67° C | 57% | 1011 hPa | 0 mm | - | 442 W/m² | - |
| 1777579023 | 16.11° C | 63% | 1011 hPa | 0 mm | - | 379 W/m² | - |
| 1777578718 | 16.11° C | 63% | 1011 hPa | 0 mm | - | 379 W/m² | - |
* Rain latest hour (hover to see other rain measurements)
** Current wind speed in m/s (hover to see current wind gust speed)